sat.trackr.live / text

‹ back to catalog

STARLINK-31510

NORAD 59575 · 2024-076M

PAYLOAD ACTIVE UNKNOWN

§ Identity

Operator
Country
US
Launch date
2024-04-23
Launch site
AFETR
Launch vehicle
Mass (kg)
RCS (m²)

Purposes: comms

External: N2YO · Heavens-Above · Gunter

§ Orbital elements

Epoch: 2026-05-25T03:20:38.066208Z

Period
94.27 min
Inclination
43.0036°
Eccentricity
0.0002936
Mean motion
15.27597726 rev/d
Perigee alt
481.0 km
Apogee alt
485.0 km
Semi-major
6,861.1 km
B*
-1.1959e-4
RAAN
293.8941°
Arg perigee
284.5188°
Mean anomaly
75.5338°
Rev number
11,823

§ Raw data

STARLINK-315101 59575U 24076M   26145.13932947 -.00003554  00000+0 -11959-3 0  99922 59575  43.0036 293.8941 0002936 284.5188  75.5338 15.27597726118238

JSON: /api/v1/satellites/59575 · /tle

For live sub-satellite position, see the globe view (requires WebGL).

§ Visibility from observer

Set your observer location to see the next 7 days of passes ≥ 10°. The values pass through the URL so the page stays shareable.

No JS? Fill the form by hand. The geolocation button needs JavaScript.